Temperature
19 19 19 19 19 19 19 19 19 19 19 19 19 19 19 19 19 19 19 19 19 19 19 19 18 18 18 18 18 18 18 17 17 17 17 17 17 17 17 17 17 17 17
19 19 19 19 19 19 19 19 19 19 19 19 19 19 19 19 19 19 19 19 19 19 19 19 19 18 18 18 18 18 18 17 17 17 17 17 17 17 17 17 17 17 16
19 19 19 19 19 19 19 19 19 19 19 19 19 19 19 19 19 19 19 19 19 19 19 19 18 18 18 18 18 18 18 17 17 17 17 17 17 17 17 17 17 17 16
19 19 19 19 19 19 19 19 19 19 19 19 19 19 19 19 19 19 19 19 19 18 18 18 18 18 18 18 18 18 18 18 17 17 17 17 17 17 17 17 17 17 16
19 19 19 19 19 19 19 19 19 19 19 19 19 19 19 19 19 19 19 19 19 18 18 18 18 18 18 18 18 18 18 18 18 17 17 17 17 17 17 17 16 16 16
19 19 19 19 19 19 19 19 19 19 19 19 19 19 19 19 19 19 19 19 19 19 18 18 18 18 18 18 18 18 18 18 18 18 17 17 17 17 17 17 16 16 16
19 19 19 19 19 19 19 19 19 19 19 19 19 19 19 19 19 19 19 19 19 19 19 18 18 18 18 18 18 18 18 18 18 18 17 17 17 17 17 17 16 16 16
19 19 19 19 19 19 19 19 19 19 19 19 19 19 19 19 19 19 19 19 19 19 19 18 18 18 18 18 18 18 18 18 18 17 17 17 17 17 17 17 16 16 16
19 19 19 19 19 19 19 19 19 18 19 19 19 19 19 19 19 19 19 19 19 19 19 19 18 18 18 18 18 18 18 18 17 17 17 17 17 17 17 17 17 16 16
19 19 19 19 19 19 19 18 18 18 18 19 19 19 19 19 19 19 19 19 19 19 19 19 19 18 18 18 18 18 18 17 17 17 17 17 17 17 17 17 16 16 16
19 19 19 19 19 18 19 18 18 18 18 18 19 19 19 19 19 18 18 19 19 19 19 19 18 18 18 18 17 17 17 17 17 17 17 17 17 17 17 17 16 16 16
19 19 19 19 19 18 18 18 18 18 18 18 18 18 18 18 19 19 18 18 18 19 19 19 18 18 18 18 17 17 17 17 17 17 17 17 17 17 16 16 16 16 16
19 19 19 19 19 18 18 18 18 18 18 18 18 18 18 18 19 18 18 18 18 18 18 18 18 18 18 18 18 17 17 17 17 17 17 17 16 16 16 16 16 16 16
19 19 19 19 19 18 18 18 18 18 18 18 18 18 18 18 18 18 18 18 18 18 18 18 18 18 18 18 17 17 17 17 17 16 16 16 16 16 16 16 16 16 15
19 19 19 19 18 18 18 18 18 18 18 18 18 18 18 18 18 18 18 18 18 18 18 18 18 18 18 17 17 17 17 17 17 16 16 16 16 16 16 16 16 15 15
19 19 19 18 18 18 18 18 18 18 17 17 17 17 17 17 18 18 18 18 18 18 17 18 17 18 17 17 17 17 17 17 16 16 16 16 16 16 16 15 15 15 15
19 18 18 18 18 18 18 18 18 17 17 17 17 17 17 17 17 17 17 17 17 17 17 17 17 17 17 17 17 16 16 16 16 16 16 16 16 16 15 15 15 15 15
18 18 18 18 18 18 17 17 17 17 17 17 17 17 17 17 17 17 17 17 17 17 17 17 17 17 17 17 16 16 16 16 16 16 16 15 15 15 15 15 15 15 15
18 18 18 18 18 17 17 17 17 17 17 17 17 17 17 17 17 17 17 16 16 16 17 17 17 16 16 16 16 16 15 15 15 15 15 15 15 15 15 15 15 15 15
17 17 17 18 17 17 17 17 17 17 16 16 16 16 16 16 16 16 16 16 16 16 16 16 16 16 16 16 15 15 15 15 15 15 15 15 15 15 15 15 15 14 14
17 17 17 17 17 17 17 17 17 16 16 16 16 16 16 16 16 16 16 16 16 16 16 15 15 15 15 15 15 15 14 15 14 14 14 14 14 14 14 14 14 14 14
17 17 17 17 17 17 17 17 16 16 16 16 16 16 16 16 16 16 16 15 15 15 15 15 15 15 15 14 14 14 14 14 14 14 14 14 14 14 14 14 14 14 13
17 17 16 16 16 17 17 16 16 16 16 16 16 16 15 15 15 15 15 15 15 15 15 15 15 14 14 14 14 14 14 14 14 14 14 14 14 14 14 13 13 13 13
16 16 16 16 16 16 16 16 16 16 15 16 16 15 15 15 15 15 15 15 15 15 14 14 14 14 14 14 14 14 13 13 13 14 13 13 13 13 13 13 13 13 13
16 16 16 16 16 16 16 15 15 15 15 15 15 15 15 15 15 15 15 14 14 14 14 14 14 14 14 14 14 13 13 13 13 13 13 13 13 13 13 13 12 12 12
16 16 16 16 16 16 16 15 15 15 15 15 15 15 15 15 15 14 14 14 14 14 14 14 14 14 14 13 13 13 13 12 12 12 13 12 12 12 12 12 12 12 12
Wind_Speed
1 1 1 2 3 4 4 3 3 2 2 3 3 2 1 1 3 4 7 12 12 11 11 10 10 9 9 9 9 10 10 10 9 9 9 9 9 10 10 10 9 10 10
1 1 1 1 1 2 3 4 3 2 2 2 2 2 2 1 4 6 7 9 12 12 11 11 10 10 10 10 10 11 11 11 11 10 9 10 9 9 10 10 10 10 10
2 2 2 2 1 2 3 3 2 2 3 2 2 2 2 2 3 5 7 7 9 11 12 11 11 10 9 9 10 11 11 12 11 11 11 10 10 10 10 10 10 10 9
3 2 2 2 2 3 2 2 2 2 1 1 2 2 1 2 3 4 5 7 8 8 11 13 12 11 10 9 10 11 11 11 11 11 10 10 10 11 10 10 10 10 9
2 2 1 1 3 2 1 1 1 1 1 1 2 2 2 2 3 3 4 6 8 8 9 12 13 12 10 9 9 10 10 10 11 11 11 11 10 10 10 10 10 10 10
3 2 2 3 2 1 1 1 0 1 1 2 3 2 2 2 2 2 3 4 6 7 8 10 10 10 10 9 8 8 9 9 10 10 10 10 10 10 9 10 10 10 10
3 2 2 2 2 1 1 1 1 2 2 1 1 1 1 2 2 3 2 2 3 4 7 9 8 8 8 9 8 7 7 7 8 8 9 9 9 9 9 9 9 9 9
2 3 2 2 2 1 2 1 1 1 2 2 1 1 0 1 2 3 2 3 3 2 3 6 7 8 8 8 7 7 6 5 6 7 7 8 9 9 9 9 9 9 9
3 1 2 2 2 2 2 2 2 3 2 1 1 1 1 1 1 1 2 1 2 2 2 3 5 6 7 8 8 8 7 6 6 6 6 7 8 8 9 9 10 9 8
2 2 1 1 1 1 1 2 2 2 2 2 1 1 1 1 1 1 2 1 2 2 2 2 3 4 5 7 8 8 9 7 6 6 5 5 7 8 7 8 9 8 8
2 2 2 2 2 1 1 1 1 1 1 2 2 1 1 1 2 2 2 2 1 2 2 2 3 4 5 7 8 9 11 9 8 6 5 4 5 6 7 8 8 8 8
3 3 3 2 2 1 1 2 2 2 2 2 2 2 1 1 2 2 2 2 2 2 2 2 2 2 4 5 6 10 12 11 9 7 6 5 4 5 6 7 8 7 7
2 2 2 3 3 2 2 2 2 3 3 2 3 2 2 2 2 2 2 2 2 2 1 2 2 1 3 5 7 9 12 12 10 9 7 6 5 4 4 6 7 7 7
2 2 3 3 3 2 2 2 2 3 2 3 4 3 3 3 2 2 2 2 2 2 1 2 1 2 3 4 6 9 9 12 11 10 9 7 6 6 5 5 5 5 6
2 3 3 2 2 2 2 2 2 3 2 3 3 3 3 3 3 2 3 2 2 2 2 2 2 1 3 4 6 6 7 11 12 11 10 9 8 8 7 6 5 6 5
1 2 2 2 2 1 2 2 2 2 2 3 3 2 2 3 3 2 2 3 3 2 2 2 1 2 2 2 5 5 6 9 13 12 12 10 10 9 9 8 7 6 5
2 2 2 2 2 2 2 2 2 3 2 3 3 2 3 2 3 2 2 2 1 1 2 2 1 1 2 1 3 3 6 7 8 12 12 11 10 11 10 9 8 7 6
2 2 3 3 3 2 2 2 3 3 3 3 3 2 3 3 2 3 2 2 1 1 1 2 1 1 1 2 3 3 4 5 6 10 11 11 11 11 10 10 9 8 7
3 3 3 3 2 2 3 3 3 3 3 3 3 3 3 3 3 3 2 2 2 2 1 2 2 1 1 1 1 2 2 1 4 6 9 10 10 10 10 10 9 8 7
3 3 3 3 3 2 3 3 3 3 3 3 2 2 2 3 3 3 3 2 2 2 2 2 2 2 1 1 1 1 1 1 2 1 3 5 7 8 9 9 9 8 7
4 3 2 2 3 3 3 2 4 4 3 3 3 3 2 2 2 2 3 2 2 2 2 2 2 2 1 1 1 2 2 2 2 1 1 2 3 4 5 6 7 8 7
3 3 3 3 3 3 2 2 3 3 3 3 4 3 3 2 2 2 2 2 3 3 3 3 3 2 2 2 2 3 2 2 2 1 1 2 2 3 4 5 8 9 8
3 3 3 3 3 2 1 2 3 4 4 3 4 3 4 2 1 1 2 3 3 5 5 4 3 3 3 2 2 3 2 3 3 3 2 2 2 2 2 5 10 11 10
3 3 3 3 2 2 1 1 4 4 4 3 3 3 3 2 2 2 3 3 3 3 5 5 4 4 3 2 3 3 3 2 2 1 1 2 1 1 1 4 9 11 11
3 3 3 3 3 2 2 1 2 3 4 4 3 2 2 2 3 2 3 3 3 2 2 2 4 4 4 4 3 1 2 1 2 2 0 1 1 1 1 2 5 9 10
3 3 3 2 2 2 2 2 2 3 3 3 3 3 2 2 3 3 3 3 3 3 2 2 2 3 4 4 4 4 3 2 2 2 1 1 1 1 1 1 2 4 6
Wind_Direction
143 132 148 171 193 184 185 211 229 228 247 246 236 217 237 179 131 154 151 163 168 172 174 179 186 193 197 199 201 203 204 204 208 210 212 214 217 218 220 221 220 218 218
125 147 193 235 221 187 188 207 220 218 231 237 247 213 190 186 154 164 161 169 177 178 180 184 189 196 201 204 206 208 208 210 212 212 213 215 215 219 224 225 225 223 219
147 200 186 207 218 205 203 201 214 210 225 228 226 224 196 180 174 165 166 169 176 185 189 192 195 199 203 207 212 213 212 213 215 215 216 215 215 217 221 226 228 227 223
180 205 197 182 206 209 194 193 191 213 219 239 248 243 208 177 191 185 177 176 179 184 193 197 197 200 205 209 213 215 216 216 216 214 214 215 218 222 224 224 226 225 225
175 195 221 176 215 199 195 219 153 203 220 232 243 221 214 192 201 192 181 178 179 180 181 190 194 198 202 209 215 216 215 215 215 212 213 215 217 223 226 225 226 228 227
182 193 193 205 221 168 156 107 139 239 228 243 255 227 216 194 206 207 205 183 179 181 177 174 182 193 199 205 211 213 214 215 214 212 212 215 216 220 225 228 226 228 230
189 197 209 205 218 173 161 168 208 240 235 235 274 300 236 216 201 208 210 178 180 171 162 166 169 176 183 201 210 212 210 211 212 211 212 214 217 219 224 228 226 226 229
196 192 194 215 205 170 169 197 200 274 268 218 204 207 231 289 282 212 201 197 188 158 152 165 167 167 168 165 183 194 202 206 211 211 208 212 214 216 220 225 224 223 225
184 228 176 212 216 193 177 193 210 228 247 254 205 210 195 222 281 263 239 198 174 167 165 164 161 160 167 158 160 180 190 195 201 208 214 216 216 217 220 222 218 218 222
188 198 182 229 231 231 185 217 205 248 255 262 255 216 187 179 216 274 271 233 219 188 195 195 153 151 165 157 156 159 177 186 194 202 210 221 221 219 220 221 219 219 220
185 193 176 220 232 216 219 233 251 266 267 271 269 261 233 234 245 232 254 251 246 214 203 196 164 159 166 159 162 162 171 180 184 192 204 217 224 223 221 218 220 219 220
195 196 189 201 219 223 234 212 236 242 262 293 299 285 256 229 246 229 236 240 238 231 204 194 177 172 169 162 169 169 174 179 181 190 201 214 226 228 227 217 218 219 221
197 194 195 199 210 213 227 221 241 245 238 249 261 275 277 256 257 252 246 248 247 250 218 191 172 180 177 152 161 171 179 182 183 189 196 204 217 226 227 216 216 222 223
184 185 177 193 210 216 230 230 240 249 236 241 254 264 273 267 255 242 242 238 255 259 239 224 174 181 183 150 169 176 180 185 187 191 197 203 210 219 223 213 216 223 229
196 179 176 179 196 201 215 226 242 243 233 234 255 263 269 273 265 248 238 223 226 257 254 237 207 183 158 142 165 179 172 189 190 192 198 201 206 212 214 210 213 215 216
216 176 180 179 184 204 213 213 239 241 238 247 246 253 272 284 287 275 248 242 227 236 259 242 228 179 152 172 168 178 189 191 189 195 201 203 207 209 206 204 206 206 210
212 192 193 200 205 209 213 224 243 241 234 254 262 253 264 282 301 310 295 276 256 238 246 263 245 192 178 163 158 194 195 186 194 200 202 207 209 206 203 203 207 209 212
218 209 207 214 221 216 220 224 251 252 244 248 257 257 266 272 279 296 305 308 301 270 222 241 245 220 210 179 175 204 214 211 199 197 197 203 206 205 204 205 207 208 210
217 215 211 211 222 229 234 232 237 243 247 247 247 251 258 265 268 275 271 284 282 283 252 231 241 224 229 220 196 229 242 249 246 194 190 201 205 207 205 205 204 202 200
213 222 229 224 219 225 236 242 249 241 245 249 247 246 255 254 260 266 253 256 268 270 273 266 248 235 228 230 212 238 252 262 280 226 174 190 200 201 197 197 197 196 192
221 219 239 250 234 226 244 243 255 245 245 251 249 242 237 225 238 272 276 282 280 272 256 258 250 256 253 254 254 249 242 241 249 220 182 204 182 187 186 193 193 191 189
220 217 228 248 258 259 268 250 246 261 253 249 254 245 220 206 215 224 268 284 265 260 263 260 255 249 236 226 236 244 229 236 249 222 220 245 188 178 185 181 181 182 186
228 228 229 230 237 241 274 295 270 262 250 254 256 257 262 246 201 254 240 232 245 247 239 244 260 261 252 231 225 243 246 246 253 226 212 240 207 199 189 171 170 176 184
245 238 236 235 223 227 231 290 300 268 257 258 259 248 238 242 260 255 261 254 249 251 244 232 240 252 253 237 242 241 250 257 268 267 188 236 239 239 154 150 178 183 189
245 240 227 223 211 219 222 216 260 257 255 252 244 238 228 223 253 251 252 257 265 278 274 254 230 226 229 222 217 234 237 229 271 267 236 228 224 233 171 171 188 193 196
243 250 235 216 208 205 185 197 232 263 260 259 238 216 208 218 244 241 242 246 258 275 275 274 242 232 225 222 217 216 233 235 262 270 250 252 237 216 230 219 178 188 206
Height
1543 1543 1544 1544 1544 1545 1545 1546 1547 1548 1548 1549 1549 1550 1550 1551 1550 1551 1551 1552 1552 1553 1553 1553 1553 1554 1555 1555 1556 1557 1558 1559 1559 1560 1561 1562 1563 1564 1565 1566 1566 1567 1568
1542 1543 1543 1543 1544 1544 1545 1545 1546 1547 1547 1548 1548 1549 1549 1550 1550 1550 1550 1551 1551 1552 1552 1552 1552 1553 1553 1554 1554 1555 1556 1556 1557 1558 1559 1559 1560 1561 1562 1563 1564 1565 1565
1541 1542 1542 1542 1543 1544 1544 1545 1546 1546 1546 1547 1547 1548 1548 1549 1549 1549 1549 1550 1550 1550 1550 1551 1551 1551 1552 1552 1553 1553 1553 1554 1555 1555 1556 1557 1558 1559 1560 1560 1561 1562 1563
1540 1541 1541 1542 1542 1543 1543 1544 1544 1545 1545 1546 1546 1547 1547 1548 1548 1548 1549 1549 1549 1549 1549 1549 1550 1550 1550 1550 1551 1551 1551 1552 1552 1553 1554 1554 1555 1556 1557 1558 1558 1559 1561
1539 1540 1540 1541 1541 1542 1542 1543 1543 1544 1544 1544 1545 1545 1546 1546 1547 1548 1548 1548 1548 1548 1548 1548 1548 1549 1549 1549 1549 1549 1550 1550 1550 1550 1551 1552 1553 1553 1554 1555 1556 1557 1558
1539 1539 1539 1540 1541 1541 1541 1542 1542 1543 1543 1543 1544 1544 1545 1545 1545 1546 1547 1547 1547 1547 1547 1547 1547 1547 1547 1547 1547 1548 1548 1548 1548 1548 1549 1549 1550 1551 1551 1552 1553 1554 1555
1538 1538 1539 1539 1540 1540 1541 1541 1541 1542 1542 1543 1543 1543 1543 1544 1544 1544 1545 1545 1546 1546 1546 1545 1545 1545 1545 1546 1546 1546 1546 1546 1546 1547 1547 1547 1548 1548 1549 1550 1551 1551 1552
1537 1538 1538 1538 1539 1539 1540 1540 1540 1541 1541 1542 1542 1542 1542 1543 1542 1543 1543 1543 1544 1545 1545 1544 1544 1544 1544 1544 1544 1544 1544 1544 1544 1545 1545 1546 1546 1546 1547 1547 1548 1548 1549
1536 1536 1537 1537 1538 1538 1539 1539 1539 1540 1540 1541 1541 1542 1541 1541 1541 1542 1542 1542 1543 1543 1543 1543 1543 1542 1542 1542 1542 1542 1542 1542 1542 1543 1543 1544 1544 1544 1544 1545 1545 1545 1546
1535 1535 1535 1536 1537 1537 1537 1538 1538 1539 1539 1539 1539 1540 1540 1540 1540 1540 1541 1541 1541 1541 1541 1541 1541 1540 1540 1540 1540 1540 1541 1541 1541 1541 1541 1541 1541 1542 1542 1542 1542 1543 1543
1533 1534 1534 1534 1535 1535 1536 1536 1537 1537 1537 1537 1537 1538 1538 1538 1539 1539 1539 1539 1539 1539 1539 1539 1539 1539 1538 1538 1538 1538 1538 1539 1539 1539 1539 1539 1539 1539 1539 1539 1539 1540 1540
1532 1532 1532 1532 1533 1533 1534 1534 1535 1535 1535 1535 1535 1536 1536 1536 1536 1537 1537 1537 1537 1537 1537 1536 1537 1537 1537 1536 1536 1536 1536 1536 1536 1537 1537 1537 1536 1536 1536 1536 1537 1537 1537
1530 1530 1530 1530 1531 1531 1532 1533 1533 1533 1533 1533 1534 1534 1534 1534 1534 1535 1535 1534 1534 1534 1534 1534 1534 1534 1535 1534 1534 1534 1534 1534 1535 1534 1534 1534 1534 1534 1534 1534 1534 1534 1535
1528 1528 1528 1528 1529 1529 1530 1530 1530 1531 1531 1532 1532 1532 1532 1532 1532 1532 1533 1533 1532 1532 1532 1532 1532 1531 1532 1532 1532 1532 1532 1532 1532 1532 1532 1532 1532 1531 1531 1531 1532 1532 1532
1526 1527 1527 1527 1527 1527 1528 1528 1528 1529 1529 1529 1529 1529 1529 1529 1530 1530 1530 1530 1531 1529 1529 1529 1529 1529 1529 1529 1529 1529 1529 1529 1529 1529 1529 1529 1529 1529 1529 1529 1529 1529 1529
1525 1525 1525 1525 1525 1525 1525 1526 1526 1526 1526 1527 1527 1527 1527 1527 1527 1527 1527 1527 1527 1527 1526 1526 1527 1526 1527 1526 1526 1526 1526 1526 1526 1526 1526 1526 1526 1526 1526 1526 1526 1526 1527
1522 1522 1523 1523 1523 1523 1523 1523 1523 1523 1523 1524 1524 1524 1524 1524 1524 1524 1524 1524 1524 1525 1524 1524 1524 1524 1524 1524 1523 1523 1523 1523 1523 1523 1523 1523 1523 1523 1523 1523 1523 1524 1524
1519 1520 1520 1520 1520 1521 1521 1521 1521 1521 1521 1521 1521 1521 1521 1521 1521 1521 1521 1521 1522 1522 1522 1521 1521 1521 1521 1521 1521 1521 1520 1520 1520 1520 1520 1520 1520 1520 1521 1521 1521 1521 1521
1516 1517 1517 1517 1517 1518 1518 1518 1518 1519 1518 1518 1518 1518 1518 1518 1518 1518 1518 1519 1519 1519 1519 1519 1518 1518 1518 1518 1518 1518 1518 1518 1518 1518 1517 1517 1517 1517 1518 1518 1518 1518 1518
1513 1513 1514 1514 1514 1515 1515 1515 1516 1516 1515 1515 1515 1515 1515 1515 1515 1515 1515 1515 1516 1516 1515 1515 1515 1515 1515 1515 1515 1514 1515 1515 1515 1515 1515 1514 1514 1514 1515 1515 1515 1515 1515
1510 1511 1511 1511 1512 1512 1512 1512 1512 1512 1512 1512 1512 1512 1512 1512 1512 1512 1512 1512 1512 1512 1512 1512 1512 1511 1511 1511 1511 1511 1511 1512 1512 1512 1512 1512 1511 1511 1511 1511 1512 1512 1512
1507 1507 1507 1508 1508 1509 1509 1509 1509 1509 1508 1508 1508 1509 1509 1508 1508 1508 1508 1509 1509 1509 1509 1509 1509 1508 1508 1508 1508 1509 1509 1509 1509 1510 1509 1509 1509 1509 1509 1509 1509 1509 1509
1504 1504 1504 1504 1504 1505 1505 1505 1505 1505 1505 1504 1504 1505 1505 1504 1505 1505 1504 1505 1505 1505 1506 1506 1505 1505 1505 1505 1505 1505 1505 1506 1506 1506 1507 1506 1506 1506 1506 1506 1506 1506 1507
1501 1501 1501 1501 1501 1501 1501 1502 1502 1502 1501 1501 1500 1501 1501 1500 1501 1501 1501 1501 1501 1501 1501 1502 1501 1501 1502 1502 1502 1502 1502 1503 1503 1504 1504 1504 1504 1504 1504 1504 1504 1504 1504
1497 1497 1498 1498 1498 1498 1498 1497 1498 1498 1498 1497 1497 1497 1497 1497 1497 1498 1497 1497 1497 1497 1497 1498 1498 1498 1498 1498 1499 1499 1499 1500 1500 1500 1501 1501 1501 1501 1501 1501 1501 1501 1501
1494 1495 1495 1495 1495 1495 1494 1494 1494 1494 1494 1494 1494 1494 1494 1494 1494 1494 1494 1494 1494 1494 1494 1494 1494 1494 1495 1495 1495 1496 1496 1497 1497 1497 1498 1498 1498 1498 1498 1498 1498 1498 1498